Date,TemperatureHighF,TemperatureAvgF,TemperatureLowF,DewpointHighF,DewpointAvgF,DewpointLowF,HumidityHigh,HumidityAvg,HumidityLow,PressureMaxIn,PressureMinIn,WindSpeedMaxMPH,WindSpeedAvgMPH,GustSpeedMaxMPH,PrecipitationSumIn
2013-1-1,54.1,43.0,35.6,36.3,32.3,28.4,82,67,45,30.28,30.19,11,1,11,0.00
2013-1-2,57.0,41.1,31.1,35.4,30.2,25.3,84,67,40,30.22,30.13,6,0,6,0.00
2013-1-3,56.3,41.3,31.3,37.4,31.2,25.3,83,69,43,30.28,30.13,5,0,5,0.00
2013-1-4,57.6,43.9,34.5,40.1,33.9,29.7,87,70,42,30.28,30.16,4,0,5,0.00
2013-1-5,56.1,46.6,36.7,46.2,39.7,31.1,89,77,59,30.25,30.07,10,0,12,0.04
2013-1-6,50.9,46.8,39.6,47.1,43.1,36.0,94,87,75,30.19,30.04,7,1,7,0.12
2013-1-7,58.3,45.6,36.0,49.1,40.3,32.9,96,83,62,30.28,30.13,6,0,6,0.00
2013-1-8,62.1,47.9,39.2,49.6,40.5,36.0,95,77,48,30.22,30.13,5,0,5,0.00
2013-1-9,56.3,46.9,40.5,47.3,40.7,35.1,93,79,66,30.16,30.01,13,1,17,0.00
2013-1-10,51.8,44.3,38.5,37.2,32.3,28.0,82,64,47,30.19,30.07,13,2,13,0.00
2013-1-11,53.8,43.2,33.1,35.8,31.8,26.8,81,65,46,30.28,30.13,10,1,11,0.00
2013-1-12,51.6,40.5,32.2,34.0,26.1,20.5,85,59,32,30.25,30.13,6,0,6,0.00
2013-1-13,51.6,38.1,28.4,27.1,22.9,20.5,75,56,30,30.28,30.16,8,1,8,0.00
2013-1-14,51.6,38.9,29.1,21.9,19.2,16.5,60,46,28,30.40,30.22,6,0,6,0.00
2013-1-15,55.6,40.4,29.7,29.7,24.0,20.1,72,53,32,30.46,30.37,6,0,6,0.00
2013-1-16,57.4,41.5,30.6,31.6,27.2,23.0,76,58,35,30.40,30.22,3,0,4,0.00
2013-1-17,61.9,43.7,31.3,35.2,29.8,24.4,79,60,35,30.25,30.13,4,0,5,0.00
2013-1-18,64.0,45.6,33.1,38.1,31.4,26.4,82,60,34,30.22,30.13,4,0,5,0.00
2013-1-19,63.1,46.4,33.1,38.1,32.2,26.1,78,60,35,30.25,30.13,5,0,5,0.00
2013-1-20,64.2,46.2,33.3,38.3,31.0,26.8,81,58,31,30.22,30.10,6,0,6,0.00
2013-1-21,63.5,45.7,32.2,36.9,31.2,24.8,79,59,34,30.19,30.07,5,0,5,0.00
2013-1-22,62.1,47.2,34.3,38.5,33.9,27.9,81,62,36,30.13,29.99,5,0,5,0.00
2013-1-23,54.5,50.3,46.9,48.2,43.4,38.5,89,77,70,30.07,29.96,6,0,6,0.00
2013-1-24,57.2,53.5,50.5,51.8,50.0,47.7,95,88,77,30.19,30.04,3,0,4,0.00
2013-1-25,66.2,57.2,52.0,56.1,51.5,47.3,96,82,60,30.19,30.04,6,0,8,0.00
2013-1-26,60.8,51.5,44.4,50.0,40.1,33.3,93,68,39,30.10,30.01,14,2,15,0.00
2013-1-27,58.3,48.7,40.3,38.5,34.8,28.9,79,60,34,30.16,30.07,9,2,9,0.00
2013-1-28,59.4,46.7,39.7,42.8,36.1,32.5,81,67,41,30.31,30.13,11,1,11,0.00
2013-1-29,59.2,45.6,39.7,43.3,36.9,34.0,85,72,46,30.34,30.25,6,0,8,0.00
2013-1-30,68.0,51.3,39.0,46.6,36.8,33.6,86,61,33,30.34,30.25,6,0,6,0.00
2013-1-31,64.4,46.5,37.6,43.2,36.0,31.1,83,68,41,30.31,30.19,6,0,6,0.00
2013-2-1,64.6,53.6,46.4,41.2,40.1,38.3,74,61,41,30.22,30.10,1,0,5,0.00
2013-2-2,59.4,50.9,44.8,47.7,43.5,37.8,85,76,61,30.31,30.19,6,0,6,0.00
2013-2-3,60.8,50.5,42.1,45.1,39.3,35.8,84,67,45,30.25,30.13,10,1,10,0.00
2013-2-4,57.9,48.4,40.6,47.1,41.8,34.7,90,78,63,30.19,30.07,6,1,6,0.00
2013-2-5,57.4,50.4,42.4,43.9,40.5,35.8,86,70,51,30.19,30.07,14,1,14,0.00
2013-2-6,61.2,47.1,36.1,43.3,35.8,30.9,87,66,42,30.19,30.13,10,1,10,0.00
2013-2-7,57.7,45.9,37.2,46.6,35.2,30.0,83,68,37,30.19,30.01,12,1,12,0.04
2013-2-8,56.3,46.1,38.8,42.8,35.9,30.9,87,69,42,30.04,29.96,11,1,12,0.04
2013-2-9,60.4,45.1,32.9,37.8,29.0,25.7,83,57,29,30.10,29.96,6,0,8,0.00
2013-2-10,61.9,46.2,32.7,34.2,30.0,25.0,75,56,34,30.13,30.01,8,1,10,0.00
2013-2-11,65.5,48.7,34.5,38.7,30.6,25.7,78,54,25,30.25,30.07,7,1,9,0.00
2013-2-12,63.3,48.4,35.6,41.4,34.5,28.2,80,61,34,30.37,30.22,8,1,8,0.00
2013-2-13,66.4,49.6,36.3,43.7,37.3,29.5,81,64,38,30.34,30.19,6,1,6,0.00
2013-2-14,70.3,53.4,38.7,47.8,36.8,33.1,87,57,32,30.25,30.13,6,0,6,0.00
2013-2-15,73.6,54.9,39.9,44.2,37.2,32.5,78,54,29,30.25,30.19,6,0,6,0.00
2013-2-16,70.2,54.2,41.9,46.9,39.8,34.3,77,60,35,30.22,30.07,6,1,6,0.00
2013-2-17,66.9,52.5,42.4,46.8,39.9,35.8,88,65,37,30.07,29.96,10,1,10,0.00
2013-2-18,54.9,48.1,39.7,41.9,35.7,32.2,83,63,45,30.07,29.96,9,1,9,0.00
2013-2-19,51.4,45.9,40.5,42.8,35.9,31.8,81,68,53,30.01,29.78,14,2,14,0.20
2013-2-20,63.9,47.1,33.6,40.1,33.2,28.4,86,61,34,30.10,29.84,9,1,11,0.00
2013-2-21,63.9,49.1,37.6,39.9,31.8,27.0,84,55,29,30.19,30.04,11,2,12,0.00
2013-2-22,67.1,50.3,35.1,39.0,33.1,27.3,76,54,31,30.28,30.16,8,1,10,0.00
2013-2-23,63.0,52.7,46.4,44.8,35.1,30.2,81,53,32,30.25,30.13,14,3,14,0.00
2013-2-24,67.8,52.2,38.8,31.8,28.3,24.4,58,42,23,30.25,30.13,9,1,9,0.00
2013-2-25,67.5,50.6,36.1,38.5,33.4,27.5,74,54,33,30.25,30.13,9,1,13,0.00
2013-2-26,71.6,52.3,36.9,40.8,30.5,23.9,80,48,22,30.22,30.10,9,1,9,0.00
2013-2-27,71.2,53.2,36.3,41.0,33.3,25.9,71,50,24,30.37,30.19,8,1,8,0.00
2013-2-28,50.2,50.0,50.0,41.5,41.1,40.6,72,71,70,30.34,30.34,4,1,4,0.00
2013-3-29,81.5,66.8,59.9,51.3,47.2,44.1,65,51,31,30.07,30.01,10,-85,10,0.00
2013-3-30,77.5,63.2,55.2,52.7,49.4,45.3,81,63,36,30.07,29.96,8,1,8,0.00
2013-3-31,73.9,62.5,53.2,54.3,47.5,39.9,89,62,33,30.07,29.99,12,2,12,0.09
2013-4-1,73.6,61.3,53.4,55.4,48.6,41.9,90,65,38,30.16,30.04,10,1,10,0.08
2013-4-2,77.0,59.3,46.6,50.4,45.8,41.5,85,64,35,30.19,30.07,9,2,9,0.00
2013-4-3,86.2,62.5,50.2,50.2,46.7,43.0,81,60,27,30.19,29.96,8,1,9,0.00
2013-4-4,73.0,61.0,54.3,54.9,50.0,46.9,88,69,43,30.13,30.01,11,2,13,0.13
2013-4-5,76.6,61.8,53.8,51.4,46.7,41.7,79,60,33,30.19,30.13,9,1,10,0.00
2013-4-6,74.5,59.9,52.2,51.8,46.5,43.0,81,63,38,30.19,30.13,10,1,11,0.00
2013-4-7,72.9,59.7,51.1,49.6,45.0,38.5,82,61,35,30.19,29.90,11,2,11,0.00
2013-4-8,71.8,57.5,48.7,48.2,34.7,29.8,79,45,24,30.04,29.84,22,6,23,0.00
2013-4-9,85.1,64.4,51.1,38.1,34.4,29.8,55,35,19,30.10,30.01,15,3,16,0.00
2013-4-10,57.0,55.0,52.7,36.3,35.6,34.7,53,48,43,30.10,30.07,0,0,0,0.00
2013-4-15,55.0,49.5,47.7,32.9,31.2,27.9,55,50,35,29.99,29.93,15,-81,15,0.00
2013-4-16,78.1,56.2,40.1,36.5,31.2,24.3,69,42,20,30.16,29.96,13,2,13,0.00
2013-4-17,81.1,61.1,46.4,35.8,29.8,24.4,50,32,17,30.25,30.13,15,2,15,0.00
2013-4-18,90.7,62.5,43.0,40.3,34.2,27.5,61,38,17,30.25,30.16,8,1,8,0.00
2013-4-19,88.7,65.3,47.7,47.7,41.8,37.8,71,46,20,30.22,30.07,12,1,12,0.00
2013-4-20,91.2,66.5,49.6,45.9,41.3,38.5,72,44,19,30.13,29.99,9,1,9,0.00
2013-4-21,96.6,69.0,50.0,50.7,42.2,37.0,75,45,16,30.07,29.96,7,1,7,0.00
2013-4-22,99.3,71.5,52.9,48.2,42.4,38.7,67,40,15,29.99,29.84,10,1,10,0.00
2013-4-23,88.3,67.3,52.2,43.9,39.6,32.4,66,41,15,29.96,29.87,11,1,11,0.00
2013-4-24,81.0,62.7,50.9,48.6,44.1,40.8,71,53,30,29.99,29.84,10,2,10,0.00
2013-4-25,70.3,60.1,50.0,60.4,46.7,41.2,98,64,42,30.16,29.96,13,2,16,0.00
2013-4-26,72.3,63.4,53.1,48.0,43.9,39.9,66,50,37,30.25,30.13,9,2,10,0.00
2013-4-27,72.9,68.2,65.1,47.8,42.9,39.0,44,40,37,30.25,30.07,10,2,10,0.00
2013-4-28,76.6,69.9,65.7,49.8,44.7,40.3,46,40,37,30.10,29.90,10,2,10,0.00
2013-4-29,84.0,74.4,68.5,51.6,46.5,43.9,45,37,30,29.93,29.78,9,-2,9,0.00
2013-4-30,80.2,74.9,70.7,45.5,42.5,40.3,36,31,26,29.87,29.78,10,2,10,0.00
2013-5-1,75.2,71.2,68.9,42.4,37.9,34.5,31,30,28,29.99,29.87,5,1,6,0.00
2013-5-17,76.6,68.4,53.4,41.5,38.9,37.0,55,35,26,30.10,30.01,11,-119,11,0.00
2013-5-18,82.9,67.1,47.3,48.4,42.9,37.9,74,44,23,30.13,30.07,11,-7,11,0.00
2013-5-19,91.8,69.2,51.1,48.7,41.5,33.3,72,41,17,30.13,29.96,10,2,10,0.00
2013-5-20,95.4,71.5,52.5,54.5,43.0,33.3,74,43,14,29.99,29.93,11,2,13,0.00
2013-5-21,77.7,63.7,53.4,47.1,39.4,31.5,67,43,21,30.01,29.96,13,3,15,0.00
2013-5-22,72.9,58.5,48.6,34.3,31.8,28.4,52,38,22,30.01,29.96,15,3,16,0.00
2013-5-23,78.3,59.6,48.7,42.4,35.9,31.8,60,43,24,30.04,29.93,11,2,13,0.00
2013-5-24,76.1,57.0,45.7,44.1,35.6,32.5,70,48,25,30.01,29.96,9,1,11,0.00
2013-5-25,73.8,59.5,47.5,43.7,39.7,35.8,71,50,29,30.07,29.96,14,2,14,0.00
2013-5-26,80.2,64.9,54.7,48.9,45.9,40.3,71,53,29,30.16,30.07,13,3,13,0.00
2013-5-27,71.6,62.2,54.0,51.8,47.5,44.1,72,59,44,30.16,30.01,9,2,10,0.00
2013-5-28,80.1,65.7,58.5,55.4,49.4,41.4,79,58,31,30.01,29.96,14,2,14,0.00
2013-5-29,78.3,65.5,57.2,51.6,44.0,37.2,61,47,31,30.01,29.93,13,3,13,0.00
2013-5-30,82.4,64.4,48.9,47.7,40.3,30.7,73,45,21,30.01,29.96,15,2,16,0.00
2013-5-31,99.3,70.0,50.5,48.7,43.3,36.7,71,43,16,30.01,29.93,8,1,10,0.00
2013-6-1,93.6,72.2,55.8,53.1,48.2,45.0,73,47,21,29.96,29.78,9,1,9,0.00
2013-6-2,83.1,66.9,55.0,50.9,47.2,43.0,71,51,30,29.81,29.69,11,1,11,0.00
2013-6-3,83.5,65.9,52.3,51.3,47.0,43.3,77,53,29,29.87,29.72,11,2,12,0.00
2013-6-4,81.0,66.5,59.0,52.7,48.9,45.7,70,55,31,29.99,29.84,11,2,13,0.00
2013-6-5,78.4,65.4,58.5,51.1,48.3,45.0,69,56,34,29.99,29.93,11,2,11,0.00
2013-6-6,82.2,66.4,58.6,52.7,49.7,45.5,73,57,32,29.99,29.87,9,2,9,0.00
2013-6-7,96.6,70.5,59.0,55.8,52.6,49.1,73,57,24,29.93,29.78,7,-4,9,0.00
2013-7-20,87.1,74.7,62.2,54.3,50.2,47.3,63,44,30,29.84,29.78,8,-94,8,0.00
2013-7-21,84.7,67.3,60.8,53.8,51.8,48.9,72,60,32,29.90,29.78,7,-24,8,0.00
2013-7-22,78.1,68.0,61.9,57.4,54.4,52.3,75,63,45,29.99,29.90,9,2,9,0.00
2013-7-23,81.0,70.0,63.1,58.8,54.7,50.7,78,60,38,30.01,29.96,8,2,9,0.00
2013-7-24,88.2,71.4,61.3,59.0,53.9,48.0,79,57,29,30.01,29.93,10,2,10,0.00
2013-7-25,85.5,69.6,58.6,56.1,52.5,48.0,76,57,30,30.01,29.96,174,3,174,0.00